[[{"header":{"parameterUnit":"m.s-1","parameterCategory":1,"la1":30.2991,"la2":30.254,"lo1":-89.0895,"lo2":-89.0444,"dy":0.0017,"dx":0.0017,"nx":28,"ny":28,"refTime":"2023-11-22T03:00:00:Z","depth":0,"parameterNumber":2,"parameterNumberName":"U-component_of_WINDS"},"data":[0,0,0,0,0,0,0,0,0,0,0,0,0,0,0,0,0,0,0,0,0,0,0,0,0,0,0,0,0,0,0,0,0,0,0,0,0,0,0,0,0,0,0,0,0,0,0,0,0,0,0,0,0,0,0,0,0,0,1.9576,1.9577,0,1.9601,1.9601,1.9601,1.9592,1.9592,1.9591,1.9591,1.9615,1.9616,1.9618,0,0,0,0,0,0,0,0,0,0,0,0,0,1.9524,1.9525,1.9576,1.9577,1.9577,1.9601,1.9601,1.9601,1.9592,1.9592,1.9591,1.959,1.9615,1.9616,1.9618,0,0,0,0,0,0,0,0,0,0,0,0,0,1.9547,1.9525,1.9576,1.9575,1.9576,1.9601,1.9601,1.9601,1.9593,1.9592,1.9591,1.959,1.9614,1.9616,1.9618,1.9645,0,0,1.9623,1.9624,0,0,0,0,0,0,0,0,1.9546,1.9549,1.9575,1.9575,1.9576,1.9593,1.9591,1.9616,1.9593,1.9586,1.9591,1.959,1.9608,1.9611,1.9617,1.9646,1.9647,1.9623,1.9624,1.9625,1.9626,0,0,0,0,0,0,0,1.9544,1.9548,1.9586,1.9576,1.9576,1.9574,1.9577,1.9596,1.9602,1.9587,1.9586,1.9589,1.9608,1.9615,1.9617,1.9648,1.9623,1.9625,1.9626,1.9627,1.9703,1.9704,0,0,0,0,0,0,1.9542,1.9547,1.9585,1.9587,1.9558,1.9576,1.9579,1.9588,1.9601,1.9603,1.959,1.9589,1.9613,1.9615,1.9618,1.9652,1.9625,1.9627,1.9628,1.9702,1.9703,1.9704,0,0,0,0,0,0,1.9541,1.9546,1.9584,1.9567,1.9571,1.9578,1.9588,1.9589,1.9596,1.9604,1.9605,1.9596,1.9612,1.9616,1.9639,1.9653,1.9628,1.9629,1.9701,1.9702,1.9704,1.972,0,0,0,0,0,0,1.954,1.9545,1.9555,1.9567,1.9572,1.9604,1.9589,1.959,1.9599,1.9598,1.9609,1.9611,1.9612,1.9636,1.9641,1.9655,1.9631,1.9699,1.9701,1.9703,1.9718,1.9721,1.9725,0,0,0,0,0,1.9538,1.9558,1.9556,1.9561,1.9585,1.9605,1.9608,1.9609,1.96,1.961,1.9616,1.961,1.9651,1.9639,1.9644,1.9659,1.9699,1.9701,1.9703,1.9716,1.9721,1.9724,0,0,0,0,0,0,1.9548,1.956,1.9557,1.9582,1.9593,1.9603,1.9616,1.9613,1.9626,1.9625,1.9625,1.9628,1.9652,1.9658,1.9644,1.9687,1.9673,1.9677,1.9682,1.9686,1.969,1.9688,1.9632,0,0,0,0,0,1.9553,1.9568,1.9578,1.9599,1.9604,1.961,1.9618,1.9618,1.9629,1.9634,1.9641,1.9652,1.9667,1.9677,1.9691,1.9719,1.9722,1.9732,1.9735,1.9738,1.974,1.9757,1.9762,1.9711,1.9711,1.9711,0,0,1.9563,1.9572,1.9581,1.9601,1.9609,1.9626,1.9613,1.963,1.9643,1.9636,1.9659,1.9665,1.9677,1.9703,1.9715,1.9708,1.9755,1.9741,1.9743,1.9744,1.976,1.9765,1.9769,1.9713,1.9713,1.9712,0,0,1.9591,1.9599,1.9618,1.9627,1.964,1.9643,1.9648,1.966,1.9664,1.9687,1.9683,1.9698,1.9724,1.9733,1.9741,1.9776,1.9771,1.978,1.9797,1.9814,1.9818,1.9821,1.9834,1.9839,1.9783,1.9783,1.9783,0,1.9602,1.9626,1.9628,1.9646,1.9656,1.9651,1.9671,1.968,1.9697,1.9704,1.9696,1.9731,1.9738,1.9767,1.9776,1.9783,1.9789,1.9778,1.9817,1.9821,1.9824,1.9836,1.9841,1.9784,1.9784,1.9784,1.9784,0,1.9641,1.9658,1.9671,1.9689,1.97,1.9719,1.9724,1.9735,1.9735,1.974,1.9764,1.9774,1.9791,1.9798,1.9797,1.9828,1.9823,1.9817,1.9803,1.983,1.9842,1.9846,1.9786,1.9785,1.9785,1.9785,0,0,1.9673,1.9693,1.9698,1.9707,1.9722,1.9735,1.9755,1.9772,1.9782,1.9795,1.9812,1.9835,1.983,1.9839,1.984,1.9854,1.9882,1.9846,1.9846,1.9853,1.9918,1.9923,1.9928,1.988,1.9881,1.9882,1.9917,0,1.9703,1.9737,1.974,1.9771,1.9787,1.9785,1.9802,1.9814,1.9819,1.9835,1.9841,1.9858,1.9849,1.9855,1.9869,1.9876,1.9895,1.9873,1.9896,1.9897,1.9893,1.9934,1.9939,1.9972,1.9921,1.9922,1.9923,0,1.9741,1.9756,1.9789,1.9803,1.981,1.9826,1.9843,1.9857,1.9871,1.9874,1.9886,1.9886,1.9907,1.9894,1.9923,1.9908,1.9918,1.9924,1.9925,1.9927,1.9911,1.9938,1.9982,1.9987,1.993,1.9929,1.9929,0,1.9763,1.9791,1.9814,1.9822,1.9839,1.985,1.9858,1.9871,1.9882,1.9898,1.9905,1.9922,1.9932,1.9946,1.9951,1.994,1.9981,1.9967,1.9985,1.9985,1.9993,1.9992,2.004,1.9999,1.9999,1.9999,1.9999,0,1.9795,1.9816,1.9825,1.9839,1.9863,1.9866,1.989,1.9897,1.9909,1.9926,1.9925,1.994,1.9946,1.9963,1.9966,1.9991,1.9996,1.9999,2.0,2.0,1.9999,2.0006,2.0004,2.0,2.0,2.0,2.0,0,1.9823,1.983,1.9856,1.9871,1.9875,1.9892,1.9905,1.992,1.9926,1.9947,1.9952,1.9962,1.9982,1.9989,2.0012,2.0015,2.0045,2.0043,2.004,2.004,2.0058,2.0056,2.0111,2.0119,2.0073,2.0073,2.0074,0,1.9843,1.9859,1.9877,1.9888,1.9896,1.9914,1.9926,1.9931,1.9943,1.9962,1.9974,1.9994,2.0011,2.0043,2.0053,2.0072,2.0071,2.0089,2.0074,2.0073,2.0072,2.0071,2.0073,2.0092,2.0092,2.0093,2.0093,0,1.9879,1.9882,1.9899,1.9917,1.9932,1.9946,1.996,1.997,1.9977,1.9991,2.0012,2.0025,2.0051,2.0071,2.0091,2.0099,2.0098,2.0098,2.0103,2.0103,2.01,2.0103,2.0048,2.0096,2.0096,2.0096,2.0096,2.0096,1.9904,1.9919,1.9934,1.9953,1.9965,1.9978,1.9994,2.0002,2.002,2.0041,2.0043,2.0066,2.0082,2.0108,2.0118,2.0137,2.0132,2.0139,2.0141,2.0142,2.0144,2.0098,2.014,2.014,2.014,2.014,2.014,0,1.994,1.995,1.9968,1.9989,2.0004,2.0002,2.0018,2.0032,2.0052,2.0067,2.0083,2.0108,2.0129,2.0141,2.0161,2.0174,2.0174,2.0179,2.0178,2.0181,2.0147,2.0141,2.0179,2.0179,2.0179,2.0179,2.0179,2.0179,1.9961,1.9986,1.9991,2.0023,2.0033,2.0056,2.0065,2.0079,2.009,2.0119,2.0136,2.0144,2.0158,2.018,2.0199,2.0202,2.021,2.0216,2.0219,2.0187,2.0183,2.0179,2.0173,2.0217,2.0217,2.0251,2.0251,2.0251]},{"header":{"parameterUnit":"m.s-1","parameterCategory":1,"la1":30.2991,"la2":30.254,"lo1":-89.0895,"lo2":-89.0444,"dy":0.0017,"dx":0.0017,"nx":28,"ny":28,"refTime":"2023-11-22T03:00:00:Z","depth":0,"parameterNumber":3,"parameterNumberName":"V-component_of_WINDS"},"data":[0,0,0,0,0,0,0,0,0,0,0,0,0,0,0,0,0,0,0,0,0,0,0,0,0,0,0,0,0,0,0,0,0,0,0,0,0,0,0,0,0,0,0,0,0,0,0,0,0,0,0,0,0,0,0,0,0,0,-6.5732,-6.5732,0,-6.5788,-6.5789,-6.5789,-6.5748,-6.5746,-6.5744,-6.5742,-6.5794,-6.5797,-6.58,0,0,0,0,0,0,0,0,0,0,0,0,0,-6.5584,-6.5587,-6.5732,-6.5732,-6.5733,-6.5788,-6.5789,-6.5789,-6.5748,-6.5746,-6.5744,-6.5741,-6.5793,-6.5797,-6.5801,0,0,0,0,0,0,0,0,0,0,0,0,0,-6.5645,-6.5588,-6.5731,-6.5719,-6.5719,-6.5788,-6.5789,-6.579,-6.5748,-6.5746,-6.5743,-6.574,-6.5792,-6.5797,-6.5801,-6.5884,0,0,-6.5815,-6.5817,0,0,0,0,0,0,0,0,-6.5641,-6.565,-6.572,-6.572,-6.572,-6.5758,-6.5756,-6.5821,-6.5749,-6.5737,-6.5742,-6.5739,-6.5784,-6.5789,-6.5806,-6.5886,-6.5888,-6.5816,-6.5818,-6.582,-6.5822,0,0,0,0,0,0,0,-6.5637,-6.5648,-6.5754,-6.5721,-6.5721,-6.5709,-6.5715,-6.5768,-6.5775,-6.5738,-6.5735,-6.5742,-6.5783,-6.5801,-6.5806,-6.5889,-6.5815,-6.582,-6.5822,-6.5824,-6.6043,-6.6046,0,0,0,0,0,0,-6.5635,-6.5644,-6.5752,-6.5755,-6.5673,-6.5714,-6.5721,-6.5748,-6.5774,-6.5776,-6.5745,-6.574,-6.5795,-6.5801,-6.5808,-6.5908,-6.582,-6.5825,-6.5827,-6.604,-6.6044,-6.6047,0,0,0,0,0,0,-6.5632,-6.5645,-6.575,-6.5699,-6.5712,-6.572,-6.5751,-6.5751,-6.5769,-6.578,-6.578,-6.5762,-6.5793,-6.5802,-6.5866,-6.5909,-6.5827,-6.5831,-6.6036,-6.6041,-6.6045,-6.6108,0,0,0,0,0,0,-6.5628,-6.5644,-6.5676,-6.57,-6.5715,-6.5808,-6.5754,-6.5754,-6.5778,-6.5772,-6.5796,-6.5797,-6.5791,-6.586,-6.5871,-6.5914,-6.5834,-6.6032,-6.6038,-6.6044,-6.6102,-6.6114,-6.6125,0,0,0,0,0,-6.5623,-6.569,-6.5678,-6.5691,-6.5755,-6.5811,-6.5819,-6.5812,-6.5781,-6.5813,-6.5821,-6.5796,-6.5903,-6.5867,-6.5879,-6.5924,-6.603,-6.6037,-6.6043,-6.6097,-6.6112,-6.6125,0,0,0,0,0,0,-6.5668,-6.5693,-6.568,-6.5757,-6.5783,-6.5804,-6.5844,-6.5828,-6.5861,-6.5854,-6.5843,-6.5849,-6.5917,-6.5927,-6.5886,-6.6007,-6.5961,-6.5971,-6.5998,-6.6012,-6.6023,-6.6019,-6.5838,0,0,0,0,0,-6.5687,-6.5732,-6.575,-6.5817,-6.5831,-6.5836,-6.5859,-6.5853,-6.5877,-6.5887,-6.5899,-6.5923,-6.5962,-6.5987,-6.6023,-6.6104,-6.6109,-6.6141,-6.6152,-6.6161,-6.617,-6.6215,-6.623,-6.6069,-6.6069,-6.6069,0,0,-6.5727,-6.5746,-6.5774,-6.5827,-6.5845,-6.5891,-6.5844,-6.5894,-6.5927,-6.5894,-6.5957,-6.5966,-6.5992,-6.6066,-6.6098,-6.6076,-6.6216,-6.617,-6.6177,-6.6181,-6.6223,-6.6239,-6.6252,-6.6074,-6.6073,-6.6072,0,0,-6.5823,-6.5842,-6.59,-6.5921,-6.5951,-6.5955,-6.5969,-6.5993,-6.5999,-6.6063,-6.6039,-6.6078,-6.6145,-6.6165,-6.6184,-6.6291,-6.627,-6.6303,-6.6361,-6.6405,-6.6418,-6.6429,-6.6468,-6.6482,-6.6311,-6.6311,-6.6311,0,-6.5868,-6.5937,-6.5932,-6.5985,-6.6008,-6.5983,-6.6043,-6.6062,-6.6102,-6.6118,-6.6093,-6.6179,-6.6194,-6.6273,-6.6299,-6.6315,-6.6331,-6.63,-6.6417,-6.6428,-6.6438,-6.6475,-6.649,-6.6315,-6.6315,-6.6314,-6.6314,0,-6.5992,-6.604,-6.6084,-6.6126,-6.6155,-6.621,-6.6213,-6.6242,-6.6234,-6.6239,-6.6305,-6.6323,-6.6363,-6.6381,-6.6372,-6.646,-6.6445,-6.6419,-6.6372,-6.6458,-6.6492,-6.6507,-6.6321,-6.6319,-6.6318,-6.6317,0,0,-6.6116,-6.6157,-6.6173,-6.6193,-6.6226,-6.6263,-6.6317,-6.636,-6.6386,-6.6414,-6.646,-6.6519,-6.6495,-6.6517,-6.651,-6.6548,-6.6634,-6.6517,-6.6518,-6.6539,-6.6733,-6.6753,-6.677,-6.6621,-6.6623,-6.6625,-6.6731,0,-6.6214,-6.6312,-6.631,-6.64,-6.6446,-6.6424,-6.6471,-6.6496,-6.6504,-6.6542,-6.6549,-6.6592,-6.6557,-6.657,-6.6607,-6.6616,-6.6673,-6.6608,-6.6662,-6.6664,-6.6657,-6.6788,-6.6809,-6.6908,-6.6744,-6.6747,-6.6748,0,-6.6342,-6.6379,-6.6474,-6.6503,-6.6522,-6.6565,-6.6605,-6.6642,-6.667,-6.6673,-6.6699,-6.6686,-6.6741,-6.6694,-6.677,-6.6726,-6.6748,-6.6756,-6.6759,-6.6764,-6.6712,-6.6797,-6.6939,-6.6954,-6.6769,-6.6768,-6.6766,0,-6.6425,-6.6497,-6.6565,-6.6582,-6.6617,-6.6649,-6.6664,-6.669,-6.6716,-6.675,-6.6767,-6.6806,-6.6828,-6.6858,-6.6857,-6.6822,-6.6934,-6.6886,-6.6937,-6.6937,-6.6961,-6.696,-6.7109,-6.6975,-6.6975,-6.6974,-6.6974,0,-6.6535,-6.6595,-6.6603,-6.6645,-6.6711,-6.6708,-6.6773,-6.6785,-6.6809,-6.6852,-6.6834,-6.6874,-6.6869,-6.691,-6.6909,-6.6972,-6.6981,-6.6985,-6.6984,-6.6987,-6.6987,-6.7001,-6.6995,-6.6978,-6.6977,-6.6977,-6.6976,0,-6.6639,-6.6647,-6.6719,-6.6747,-6.6756,-6.6804,-6.6827,-6.6866,-6.6873,-6.6928,-6.694,-6.695,-6.6997,-6.6999,-6.7051,-6.7051,-6.7129,-6.7119,-6.712,-6.7119,-6.717,-6.7166,-6.7335,-6.7357,-6.7207,-6.7209,-6.721,0,-6.6709,-6.6755,-6.679,-6.6819,-6.6837,-6.6883,-6.6911,-6.691,-6.694,-6.6977,-6.7011,-6.7057,-6.7094,-6.7169,-6.718,-6.7221,-6.7213,-6.727,-6.7219,-6.7222,-6.7215,-6.7213,-6.7218,-6.728,-6.7281,-6.7283,-6.7284,0,-6.6834,-6.6836,-6.6878,-6.6923,-6.6958,-6.6992,-6.7023,-6.7047,-6.705,-6.7084,-6.7134,-6.7162,-6.7218,-6.7264,-6.7304,-6.7318,-6.7302,-6.73,-6.7314,-6.7318,-6.7317,-6.7319,-6.7148,-6.7296,-6.7295,-6.7294,-6.7293,-6.7293,-6.6923,-6.6964,-6.6996,-6.7044,-6.7069,-6.71,-6.7139,-6.7152,-6.7194,-6.7241,-6.7237,-6.7292,-6.732,-6.7373,-6.7391,-6.7433,-6.7414,-6.7434,-6.7439,-6.7444,-6.7451,-6.731,-6.744,-6.744,-6.744,-6.7439,-6.7439,0,-6.7048,-6.7068,-6.7113,-6.716,-6.7198,-6.7182,-6.7217,-6.7249,-6.7298,-6.7327,-6.7365,-6.7422,-6.7467,-6.7483,-6.7527,-6.7557,-6.7551,-6.7569,-6.7567,-6.7571,-6.7465,-6.7449,-6.7574,-6.7574,-6.7573,-6.7573,-6.7573,-6.7573,-6.7117,-6.7186,-6.7193,-6.7274,-6.7293,-6.7349,-6.7371,-6.7399,-6.7423,-6.7489,-6.7527,-6.7538,-6.7562,-6.7607,-6.7648,-6.7651,-6.7668,-6.769,-6.769,-6.7591,-6.7578,-6.7565,-6.755,-6.7693,-6.7694,-6.7792,-6.7793,-6.7794]}]]